Kuantan, Malaysia

1:38 AM +08 on April 25, 2018 (GMT +0800)
Kuantan

Weather History for WMKD - January, 2014

Change the Weather History Date:

Saturday, January 11, 2014

  Actual Average Record
Temperature  
Mean Temperature 76 °F -  
Max Temperature 79 °F 86 °F - ()
Min Temperature 72 °F 71 °F - ()
Cooling Degree Days 10    
Growing Degree Days 26 (Base 50)    
Moisture  
Dew Point 72 °F    
Average Humidity 90    
Maximum Humidity 96    
Minimum Humidity 78    
Precipitation  
Precipitation 0.02 in 0.31 in - ()
Sea Level Pressure  
Sea Level Pressure 29.89 in    
Wind  
Wind Speed 4 mph ()    
Max Wind Speed 6 mph    
Max Gust Speed -    
Visibility 6.8 miles    
Events      
T = Trace of Precipitation, MM = Missing Value Source: Averaged Metar Reports

Daily Weather History Graph

Daily Weather History Graph

Search for Another Location

Airport or City:

Astronomy

Jan. 11, 2014 Rise Set
Actual Time 7:17 AM +08 7:12 PM +08
Civil Twilight 6:55 AM +08 7:34 PM +08
Nautical Twilight 6:29 AM +08 8:00 PM +08
Astronomical Twilight 6:03 AM +08 8:26 PM +08
Moon 3:22 PM +08 (1/11) 3:07 AM +08 (1/11)
Length of Visible Light 12h 39m
Length of Day
11h 55m
Waxing Gibbous, 79% of the Moon is Illuminated
Jan 11
Waxing Gibbous
Jan 16
Full
Jan 24
Last Quarter
Jan 31
New
Feb 7
First Quarter

Hourly Weather History & Observations

Time (+08) Temp. Dew Point Humidity Pressure Visibility Wind Dir Wind Speed Gust Speed Precip Events Conditions
12:00 AM 73.4 °F 71.6 °F 94% 29.92 in 6.2 mi NNE 3.5 mph - N/A   Mostly Cloudy
1:00 AM 73.4 °F 71.6 °F 94% 29.92 in 6.2 mi NNW 5.8 mph - N/A   Mostly Cloudy
2:00 AM 72 °F 71 °F 96% 29.91 in 7 mi North 5.8 mph - -   Mist
2:00 AM 73.4 °F 71.6 °F 94% 29.89 in 6.2 mi North 5.8 mph - N/A   Mostly Cloudy
3:00 AM 73.4 °F 71.6 °F 94% 29.86 in 6.2 mi North 3.5 mph - N/A   Mostly Cloudy
4:00 AM 73.4 °F 71.6 °F 94% 29.86 in 6.2 mi North 3.5 mph - N/A   Mostly Cloudy
5:00 AM 73 °F 71 °F 89% 29.86 in 7 mi North 3.5 mph - -   Haze
5:00 AM 73.4 °F 69.8 °F 88% 29.86 in 6.2 mi North 3.5 mph - N/A   Mostly Cloudy
6:00 AM 73.4 °F 71.6 °F 94% 29.86 in 6.2 mi NNE 3.5 mph - N/A   Mostly Cloudy
7:00 AM 73.4 °F 71.6 °F 94% 29.89 in 6.2 mi North 4.6 mph - N/A   Mostly Cloudy
8:00 AM 72 °F 71 °F 96% 29.91 in 9 mi NNE 3.5 mph - -   Mist
8:00 AM 73.4 °F 71.6 °F 94% 29.92 in 6.2 mi NNE 3.5 mph - N/A   Mostly Cloudy
9:00 AM 73.4 °F 71.6 °F 94% 29.92 in 6.2 mi North 3.5 mph - N/A   Mostly Cloudy
10:00 AM 77.0 °F 73.4 °F 89% 29.92 in 6.2 mi North 3.5 mph - N/A   Mostly Cloudy
11:00 AM 79 °F 73 °F 78% 29.94 in 12 mi North 5.8 mph - -   Haze
11:00 AM 78.8 °F 73.4 °F 83% 29.95 in 6.2 mi North 5.8 mph - N/A   Mostly Cloudy
12:00 PM 77.0 °F 73.4 °F 89% 29.92 in 6.2 mi North 3.5 mph - N/A   Mostly Cloudy
1:00 PM 75.2 °F 73.4 °F 94% 29.89 in 6.2 mi NNE 5.8 mph - N/A   Mostly Cloudy
2:00 PM 75 °F 72 °F 87% 29.89 in 9 mi North 5.8 mph - -   Partly Cloudy
2:00 PM 75.2 °F 71.6 °F 89% 29.89 in 6.2 mi North 5.8 mph - N/A   Mostly Cloudy
3:00 PM 77.0 °F 73.4 °F 89% 29.86 in 6.2 mi North 4.6 mph - N/A   Mostly Cloudy
4:00 PM 77.0 °F 73.4 °F 89% 29.83 in 6.2 mi North 5.8 mph - N/A   Mostly Cloudy
5:00 PM 78 °F 72 °F 78% 29.84 in 11 mi North 5.8 mph - -   Haze
5:00 PM 77.0 °F 71.6 °F 83% 29.83 in 6.2 mi North 5.8 mph - N/A   Mostly Cloudy
6:00 PM 77.0 °F 73.4 °F 89% 29.83 in 6.2 mi NNE 4.6 mph - N/A   Mostly Cloudy
7:00 PM 77.0 °F 73.4 °F 89% 29.86 in 6.2 mi NNW 4.6 mph - N/A   Mostly Cloudy
8:00 PM 75 °F 72 °F 88% 29.89 in 7 mi North 2.3 mph - -   Haze
8:00 PM 75.2 °F 71.6 °F 89% 29.89 in 6.2 mi North 2.3 mph - N/A   Mostly Cloudy
9:00 PM 75.2 °F 71.6 °F 89% 29.89 in 6.2 mi NNE 3.5 mph - N/A   Mostly Cloudy
10:00 PM 75.2 °F 71.6 °F 89% 29.92 in 6.2 mi NNE 3.5 mph - N/A   Scattered Clouds
11:00 PM 75 °F 72 °F 87% 29.94 in 6 mi North 3.5 mph - -   Haze
11:00 PM 75.2 °F 71.6 °F 89% 29.92 in 6.2 mi North 3.5 mph - N/A   Mostly Cloudy